Погода в Беллыке

Россия / Красноярский край     54°32′52″N   91°19′58″E
темп.,
°C
ветер,
м/с
пор.,
м/с
влажн.,
%
обл.,
%
осадки,
мм/ч
давл.,
гПа
погр.,
м
17 января, пн
пн1701:00−13вюв2291100 0.0 102136
04:00−10юв2390100 0.0 1021106
07:00−9вюв3694100 0.3 1021287
10:00−11вюв3495100 0.0 102298
13:00−8вюв3489100 0.0 1021176
16:00−7вюв2389100 0.0 102186
19:00−7вюв2289100 0.0 102242
22:00−6юв2397100 0.9 1022107
18 января, вт
вт1801:00−6вюв1197100 4.7 102342
04:00−6ююв1198100 0.4 102418
07:00−7в1198100 0.5 102610
10:00−9всв1199100 0.1 102711
13:00−5в119792 0.1 102664
16:00−5зюз1196100 0.0 102710
19:00−6ссз1196100 0.0 102710
22:00−7с1195100 0.0 102811
19 января, ср
ср1901:00−7сз1196100 0.1 102811
04:00−7с1197100 0.7 102815
07:00−9ссз2296100 0.9 102812
10:00−9ссз229596 0.0 102820
13:00−8сз229214 0.0 102765
16:00−10сз22957 0.0 102711
19:00−16ссз229821 0.0 102910
22:00−18ссз219931 0.0 10309
20 января, чт
чт2001:00−20с1110055 0.0 10309
04:00−21с1110079 0.0 10319
07:00−22всв1110096 0.0 103211
10:00−22в1110099 0.0 103321
13:00−16ююв119987 0.0 103286
16:00−17юв119979 0.0 103211
19:00−21св1110087 0.0 10339
22:00−21св1110095 0.0 10339
21 января, пт
пт2101:00−22св0010097 0.1 103414
04:00−22ссв1110098 0.0 103418
07:00−24всв00100100 0.1 103420
10:00−23вюв1110098 0.0 103525
13:00−18ююв119895 0.1 103378
16:00−18зюз119926 0.0 10329
19:00−22ссз1110057 0.0 10339
22:00−22ссз1110057 0.0 103310